Location: Unspecified
(0.0000°N, 0.0000°E)
Time: 11:02:32
(UTC+00:00)

TECHNOSAT - Pass Details

Date: 12 June 2023
Orbit: 577 x 593 km, 97.4° (Epoch: 23 September)

Event Time Altitude Azimuth Distance (km) Brightness Sun altitude
Rises 19:03:06 0° 356° (N) 2,795 ? -14.5°
Reaches altitude 10° 19:05:23 10° 347° (NNW) 1,895 ? -15.0°
Maximum altitude 19:09:08 34° 281° (W) 961 ? -15.9°
Drops below altitude 10° 19:12:52 10° 216° (SW) 1,893 ? -16.7°
Sets 19:15:09 0° 206° (SSW) 2,792 ? -17.2°
